owner,sensor,date,latitude,longitude,vertical_datum,wind_speed,wind_to_direction,wind_speed_of_gust,qcFlag 
FIT,ioos:station:wmo:SIPF1:1,2017-04-24T16:15:00Z,27.8620,-80.4450,1.0,4.9,248.0,99.0,'11111222,11111222,11144222' 
FIT,ioos:station:wmo:SIPF1:1,2017-04-24T16:30:00Z,27.8620,-80.4450,1.0,5.5,249.0,99.0,'11111222,11111222,11144222' 
FIT,ioos:station:wmo:SIPF1:1,2017-04-24T16:45:00Z,27.8620,-80.4450,1.0,5.0,238.0,99.0,'11111222,11111222,11144222' 
FIT,ioos:station:wmo:SIPF1:1,2017-04-24T17:00:00Z,27.8620,-80.4450,1.0,4.3,239.0,99.0,'11111222,11111222,11144222' 
FIT,ioos:station:wmo:SIPF1:1,2017-04-24T17:15:00Z,27.8620,-80.4450,1.0,5.9,238.0,99.0,'11111222,11111222,11144222' 
FIT,ioos:station:wmo:SIPF1:1,2017-04-24T17:30:00Z,27.8620,-80.4450,1.0,6.4,244.0,99.0,'11111222,11111222,11144222' 
FIT,ioos:station:wmo:SIPF1:1,2017-04-24T17:45:00Z,27.8620,-80.4450,1.0,5.7,251.0,99.0,'11111222,11111222,11144222' 
FIT,ioos:station:wmo:SIPF1:1,2017-04-24T18:00:00Z,27.8620,-80.4450,1.0,6.8,245.0,99.0,'11111222,11111222,11144222' 
FIT,ioos:station:wmo:SIPF1:1,2017-04-24T18:15:00Z,27.8620,-80.4450,1.0,5.8,248.0,99.0,'11111222,11111222,11144222' 
FIT,ioos:station:wmo:SIPF1:1,2017-04-24T18:30:00Z,27.8620,-80.4450,1.0,6.9,255.0,99.0,'11111222,11111222,11144222' 
FIT,ioos:station:wmo:SIPF1:1,2017-04-24T18:45:00Z,27.8620,-80.4450,1.0,7.2,249.0,99.0,'11111222,11111222,11144222' 
FIT,ioos:station:wmo:SIPF1:1,2017-04-24T19:00:00Z,27.8620,-80.4450,1.0,7.9,255.0,99.0,'11111222,11111222,11144222' 
FIT,ioos:station:wmo:SIPF1:1,2017-04-24T19:15:00Z,27.8620,-80.4450,1.0,7.9,228.0,99.0,'11111222,11111222,11144222' 
FIT,ioos:station:wmo:SIPF1:1,2017-04-24T19:30:00Z,27.8620,-80.4450,1.0,5.5,232.0,99.0,'11111222,11111222,11144222' 
FIT,ioos:station:wmo:SIPF1:1,2017-04-24T19:45:00Z,27.8620,-80.4450,1.0,6.7,243.0,99.0,'11111222,11111222,11144222' 
FIT,ioos:station:wmo:SIPF1:1,2017-04-24T20:00:00Z,27.8620,-80.4450,1.0,7.2,259.0,99.0,'11111222,11111222,11144222' 
FIT,ioos:station:wmo:SIPF1:1,2017-04-24T20:15:00Z,27.8620,-80.4450,1.0,7.2,265.0,99.0,'11111222,11111222,11144222' 
FIT,ioos:station:wmo:SIPF1:1,2017-04-24T20:30:00Z,27.8620,-80.4450,1.0,7.9,267.0,99.0,'11111222,11111222,11144222' 
FIT,ioos:station:wmo:SIPF1:1,2017-04-24T20:45:00Z,27.8620,-80.4450,1.0,8.5,271.0,99.0,'11111222,11111222,11144222' 
FIT,ioos:station:wmo:SIPF1:1,2017-04-24T21:00:00Z,27.8620,-80.4450,1.0,9.6,261.0,99.0,'11111222,11111222,11144222' 
FIT,ioos:station:wmo:SIPF1:1,2017-04-24T21:15:00Z,27.8620,-80.4450,1.0,9.7,264.0,99.0,'11111222,11111222,11144222' 
FIT,ioos:station:wmo:SIPF1:1,2017-04-24T21:30:00Z,27.8620,-80.4450,1.0,9.5,269.0,99.0,'11111222,11111222,11144222' 
FIT,ioos:station:wmo:SIPF1:1,2017-04-24T21:45:00Z,27.8620,-80.4450,1.0,8.7,263.0,99.0,'11111222,11111222,11144222' 
FIT,ioos:station:wmo:SIPF1:1,2017-04-24T22:00:00Z,27.8620,-80.4450,1.0,8.8,263.0,99.0,'11111222,11111222,11144222' 
FIT,ioos:station:wmo:SIPF1:1,2017-04-24T22:15:00Z,27.8620,-80.4450,1.0,9.0,269.0,99.0,'11111222,11111222,11144222' 
FIT,ioos:station:wmo:SIPF1:1,2017-04-24T22:30:00Z,27.8620,-80.4450,1.0,9.0,267.0,99.0,'11111222,11111222,11144222' 
FIT,ioos:station:wmo:SIPF1:1,2017-04-24T22:45:00Z,27.8620,-80.4450,1.0,9.0,269.0,99.0,'11111222,11111222,11144222' 
FIT,ioos:station:wmo:SIPF1:1,2017-04-24T23:00:00Z,27.8620,-80.4450,1.0,8.9,275.0,99.0,'11111222,11111222,11144222' 
FIT,ioos:station:wmo:SIPF1:1,2017-04-24T23:15:00Z,27.8620,-80.4450,1.0,7.5,272.0,99.0,'11111222,11111222,11144222' 
FIT,ioos:station:wmo:SIPF1:1,2017-04-24T23:30:00Z,27.8620,-80.4450,1.0,7.1,266.0,99.0,'11111222,11111222,11144222' 
FIT,ioos:station:wmo:SIPF1:1,2017-04-24T23:45:00Z,27.8620,-80.4450,1.0,7.4,269.0,99.0,'11111222,11111222,11144222' 
FIT,ioos:station:wmo:SIPF1:1,2017-04-25T00:00:00Z,27.8620,-80.4450,1.0,7.4,262.0,99.0,'11111222,11111222,11144222' 
FIT,ioos:station:wmo:SIPF1:1,2017-04-25T00:15:00Z,27.8620,-80.4450,1.0,6.0,263.0,99.0,'11111222,11111222,11144222' 
FIT,ioos:station:wmo:SIPF1:1,2017-04-25T00:30:00Z,27.8620,-80.4450,1.0,5.3,269.0,99.0,'11111222,11111222,11144222' 
FIT,ioos:station:wmo:SIPF1:1,2017-04-25T00:45:00Z,27.8620,-80.4450,1.0,5.5,266.0,99.0,'11111222,11111222,11144222' 
FIT,ioos:station:wmo:SIPF1:1,2017-04-25T01:00:00Z,27.8620,-80.4450,1.0,5.9,268.0,99.0,'11111222,11111222,11144222' 
FIT,ioos:station:wmo:SIPF1:1,2017-04-25T01:15:00Z,27.8620,-80.4450,1.0,5.8,268.0,99.0,'11111222,11111222,11144222' 
FIT,ioos:station:wmo:SIPF1:1,2017-04-25T01:30:00Z,27.8620,-80.4450,1.0,6.9,266.0,99.0,'11111222,11111222,11144222' 
FIT,ioos:station:wmo:SIPF1:1,2017-04-25T01:45:00Z,27.8620,-80.4450,1.0,7.1,265.0,99.0,'11111222,11111222,11144222' 
FIT,ioos:station:wmo:SIPF1:1,2017-04-25T02:00:00Z,27.8620,-80.4450,1.0,6.6,261.0,99.0,'11111222,11111222,11144222' 
FIT,ioos:station:wmo:SIPF1:1,2017-04-25T02:15:00Z,27.8620,-80.4450,1.0,6.4,257.0,99.0,'11111222,11111222,11144222' 
FIT,ioos:station:wmo:SIPF1:1,2017-04-25T02:30:00Z,27.8620,-80.4450,1.0,6.1,259.0,99.0,'11111222,11111222,11144222' 
FIT,ioos:station:wmo:SIPF1:1,2017-04-25T02:45:00Z,27.8620,-80.4450,1.0,5.8,259.0,99.0,'11111222,11111222,11144222' 
FIT,ioos:station:wmo:SIPF1:1,2017-04-25T03:00:00Z,27.8620,-80.4450,1.0,5.6,258.0,99.0,'11111222,11111222,11144222' 
FIT,ioos:station:wmo:SIPF1:1,2017-04-25T03:15:00Z,27.8620,-80.4450,1.0,5.4,260.0,99.0,'11111222,11111222,11144222' 
FIT,ioos:station:wmo:SIPF1:1,2017-04-25T03:30:00Z,27.8620,-80.4450,1.0,5.0,254.0,99.0,'11111222,11111222,11144222' 
FIT,ioos:station:wmo:SIPF1:1,2017-04-25T03:45:00Z,27.8620,-80.4450,1.0,5.2,252.0,99.0,'11111222,11111222,11144222' 
FIT,ioos:station:wmo:SIPF1:1,2017-04-25T04:00:00Z,27.8620,-80.4450,1.0,4.8,253.0,99.0,'11111222,11111222,11144222' 
FIT,ioos:station:wmo:SIPF1:1,2017-04-25T04:15:00Z,27.8620,-80.4450,1.0,4.7,257.0,99.0,'11111222,11111222,11144222' 
FIT,ioos:station:wmo:SIPF1:1,2017-04-25T04:30:00Z,27.8620,-80.4450,1.0,4.9,257.0,99.0,'11111222,11111222,11144222' 
FIT,ioos:station:wmo:SIPF1:1,2017-04-25T04:45:00Z,27.8620,-80.4450,1.0,3.9,259.0,99.0,'11111222,11111222,11144222' 
FIT,ioos:station:wmo:SIPF1:1,2017-04-25T05:00:00Z,27.8620,-80.4450,1.0,3.1,274.0,99.0,'11111222,11111222,11144222' 
FIT,ioos:station:wmo:SIPF1:1,2017-04-25T05:15:00Z,27.8620,-80.4450,1.0,2.9,266.0,99.0,'11111222,11111222,11144222' 
FIT,ioos:station:wmo:SIPF1:1,2017-04-25T05:30:00Z,27.8620,-80.4450,1.0,4.2,267.0,99.0,'11111222,11111222,11144222' 
FIT,ioos:station:wmo:SIPF1:1,2017-04-25T05:45:00Z,27.8620,-80.4450,1.0,4.2,263.0,99.0,'11111222,11111222,11144222' 
FIT,ioos:station:wmo:SIPF1:1,2017-04-25T06:00:00Z,27.8620,-80.4450,1.0,4.2,269.0,99.0,'11111222,11111222,11144222' 
FIT,ioos:station:wmo:SIPF1:1,2017-04-25T06:15:00Z,27.8620,-80.4450,1.0,4.3,270.0,99.0,'11111222,11111222,11144222' 
FIT,ioos:station:wmo:SIPF1:1,2017-04-25T06:30:00Z,27.8620,-80.4450,1.0,4.4,270.0,99.0,'11111222,11111222,11144222' 
FIT,ioos:station:wmo:SIPF1:1,2017-04-25T06:45:00Z,27.8620,-80.4450,1.0,3.5,268.0,99.0,'11111222,11111222,11144222' 
FIT,ioos:station:wmo:SIPF1:1,2017-04-25T07:00:00Z,27.8620,-80.4450,1.0,3.6,268.0,99.0,'11111222,11111222,11144222' 
FIT,ioos:station:wmo:SIPF1:1,2017-04-25T07:15:00Z,27.8620,-80.4450,1.0,3.4,266.0,99.0,'11111222,11111222,11144222' 
FIT,ioos:station:wmo:SIPF1:1,2017-04-25T07:30:00Z,27.8620,-80.4450,1.0,3.4,268.0,99.0,'11111222,11111222,11144222' 
FIT,ioos:station:wmo:SIPF1:1,2017-04-25T07:45:00Z,27.8620,-80.4450,1.0,3.4,266.0,99.0,'11111222,11111222,11144222' 
FIT,ioos:station:wmo:SIPF1:1,2017-04-25T08:00:00Z,27.8620,-80.4450,1.0,3.7,261.0,99.0,'11111222,11111222,11144222' 
FIT,ioos:station:wmo:SIPF1:1,2017-04-25T08:15:00Z,27.8620,-80.4450,1.0,3.9,256.0,99.0,'11111222,11111222,11144222' 
FIT,ioos:station:wmo:SIPF1:1,2017-04-25T08:30:00Z,27.8620,-80.4450,1.0,4.1,263.0,99.0,'11111222,11111222,11144222' 
FIT,ioos:station:wmo:SIPF1:1,2017-04-25T08:45:00Z,27.8620,-80.4450,1.0,4.5,267.0,99.0,'11111222,11111222,11144222' 
FIT,ioos:station:wmo:SIPF1:1,2017-04-25T09:00:00Z,27.8620,-80.4450,1.0,5.0,268.0,99.0,'11111222,11111222,11144222' 
FIT,ioos:station:wmo:SIPF1:1,2017-04-25T09:15:00Z,27.8620,-80.4450,1.0,5.1,267.0,99.0,'11111222,11111222,11144222' 
FIT,ioos:station:wmo:SIPF1:1,2017-04-25T09:30:00Z,27.8620,-80.4450,1.0,5.1,270.0,99.0,'11111222,11111222,11144222' 
FIT,ioos:station:wmo:SIPF1:1,2017-04-25T09:45:00Z,27.8620,-80.4450,1.0,4.6,275.0,99.0,'11111222,11111222,11144222' 
FIT,ioos:station:wmo:SIPF1:1,2017-04-25T10:00:00Z,27.8620,-80.4450,1.0,4.5,273.0,99.0,'11111222,11111222,11144222' 
FIT,ioos:station:wmo:SIPF1:1,2017-04-25T10:15:00Z,27.8620,-80.4450,1.0,4.5,276.0,99.0,'11111222,11111222,11144222' 
FIT,ioos:station:wmo:SIPF1:1,2017-04-25T10:30:00Z,27.8620,-80.4450,1.0,4.5,276.0,99.0,'11111222,11111222,11144222' 
FIT,ioos:station:wmo:SIPF1:1,2017-04-25T10:45:00Z,27.8620,-80.4450,1.0,4.7,273.0,99.0,'11111222,11111222,11144222' 
FIT,ioos:station:wmo:SIPF1:1,2017-04-25T11:00:00Z,27.8620,-80.4450,1.0,4.4,274.0,99.0,'11111222,11111222,11144222' 
FIT,ioos:station:wmo:SIPF1:1,2017-04-25T11:15:00Z,27.8620,-80.4450,1.0,4.1,272.0,99.0,'11111222,11111222,11144222' 
FIT,ioos:station:wmo:SIPF1:1,2017-04-25T11:30:00Z,27.8620,-80.4450,1.0,4.4,277.0,99.0,'11111222,11111222,11144222' 
FIT,ioos:station:wmo:SIPF1:1,2017-04-25T11:45:00Z,27.8620,-80.4450,1.0,4.2,278.0,99.0,'11111222,11111222,11144222' 
FIT,ioos:station:wmo:SIPF1:1,2017-04-25T12:00:00Z,27.8620,-80.4450,1.0,4.6,283.0,99.0,'11111222,11111222,11144222' 
FIT,ioos:station:wmo:SIPF1:1,2017-04-25T12:15:00Z,27.8620,-80.4450,1.0,4.4,297.0,99.0,'11111222,11111222,11144222' 
FIT,ioos:station:wmo:SIPF1:1,2017-04-25T12:30:00Z,27.8620,-80.4450,1.0,5.1,305.0,99.0,'11111222,11111222,11144222' 
FIT,ioos:station:wmo:SIPF1:1,2017-04-25T12:45:00Z,27.8620,-80.4450,1.0,5.3,308.0,99.0,'11111222,11111222,11144222' 
FIT,ioos:station:wmo:SIPF1:1,2017-04-25T13:00:00Z,27.8620,-80.4450,1.0,4.6,294.0,99.0,'11111222,11111222,11144222' 
FIT,ioos:station:wmo:SIPF1:1,2017-04-25T13:15:00Z,27.8620,-80.4450,1.0,4.6,298.0,99.0,'11111222,11111222,11144222' 
FIT,ioos:station:wmo:SIPF1:1,2017-04-25T13:30:00Z,27.8620,-80.4450,1.0,5.0,304.0,99.0,'11111222,11111222,11144222' 
FIT,ioos:station:wmo:SIPF1:1,2017-04-25T13:45:00Z,27.8620,-80.4450,1.0,4.7,296.0,99.0,'11111222,11111222,11144222' 
FIT,ioos:station:wmo:SIPF1:1,2017-04-25T14:00:00Z,27.8620,-80.4450,1.0,4.4,299.0,99.0,'11111222,11111222,11144222' 
FIT,ioos:station:wmo:SIPF1:1,2017-04-25T14:15:00Z,27.8620,-80.4450,1.0,3.9,295.0,99.0,'11111222,11111222,11144222' 
FIT,ioos:station:wmo:SIPF1:1,2017-04-25T14:30:00Z,27.8620,-80.4450,1.0,4.5,307.0,99.0,'11111222,11111222,11144222' 
FIT,ioos:station:wmo:SIPF1:1,2017-04-25T14:45:00Z,27.8620,-80.4450,1.0,4.8,288.0,99.0,'11111222,11111222,11144222' 
FIT,ioos:station:wmo:SIPF1:1,2017-04-25T15:00:00Z,27.8620,-80.4450,1.0,4.2,288.0,99.0,'11111222,11111222,11144222' 
FIT,ioos:station:wmo:SIPF1:1,2017-04-25T15:15:00Z,27.8620,-80.4450,1.0,4.0,284.0,99.0,'11111222,11111222,11144222' 
FIT,ioos:station:wmo:SIPF1:1,2017-04-25T15:30:00Z,27.8620,-80.4450,1.0,3.9,274.0,99.0,'11111222,11111222,11144222' 
FIT,ioos:station:wmo:SIPF1:1,2017-04-25T15:45:00Z,27.8620,-80.4450,1.0,3.9,288.0,99.0,'11111222,11111222,11144222' 
FIT,ioos:station:wmo:SIPF1:1,2017-04-25T16:00:00Z,27.8620,-80.4450,1.0,3.8,288.0,99.0,'11111222,11111222,11144222' 
FIT,ioos:station:wmo:SIPF1:1,2017-04-25T16:15:00Z,27.8620,-80.4450,1.0,3.5,275.0,99.0,'11111222,11111222,11144222' 
FIT,ioos:station:wmo:SIPF1:1,2017-04-25T16:30:00Z,27.8620,-80.4450,1.0,3.6,258.0,99.0,'11111222,11111222,11144222' 
FIT,ioos:station:wmo:SIPF1:1,2017-04-25T16:45:00Z,27.8620,-80.4450,1.0,3.0,245.0,99.0,'11111222,11111222,11144222' 
FIT,ioos:station:wmo:SIPF1:1,2017-04-25T17:00:00Z,27.8620,-80.4450,1.0,2.1,298.0,99.0,'11111222,11111222,11144222' 
FIT,ioos:station:wmo:SIPF1:1,2017-04-25T17:15:00Z,27.8620,-80.4450,1.0,3.4,80.0,99.0,'11111222,11111222,11144222' 
FIT,ioos:station:wmo:SIPF1:1,2017-04-25T17:30:00Z,27.8620,-80.4450,1.0,3.6,71.0,99.0,'11111222,11111222,11144222' 
FIT,ioos:station:wmo:SIPF1:1,2017-04-25T17:45:00Z,27.8620,-80.4450,1.0,5.1,84.0,99.0,'11111222,11111222,11144222' 
FIT,ioos:station:wmo:SIPF1:1,2017-04-25T18:00:00Z,27.8620,-80.4450,1.0,4.4,85.0,99.0,'11111222,11111222,11144222' 
FIT,ioos:station:wmo:SIPF1:1,2017-04-25T18:15:00Z,27.8620,-80.4450,1.0,4.1,88.0,99.0,'11111222,11111222,11144222' 
FIT,ioos:station:wmo:SIPF1:1,2017-04-25T18:30:00Z,27.8620,-80.4450,1.0,4.2,92.0,99.0,'11111222,11111222,11144222' 
FIT,ioos:station:wmo:SIPF1:1,2017-04-25T18:45:00Z,27.8620,-80.4450,1.0,4.2,91.0,99.0,'11111222,11111222,11144222' 
FIT,ioos:station:wmo:SIPF1:1,2017-04-25T19:00:00Z,27.8620,-80.4450,1.0,4.2,99.0,99.0,'11111222,11111222,11144222' 
FIT,ioos:station:wmo:SIPF1:1,2017-04-25T19:15:00Z,27.8620,-80.4450,1.0,4.4,98.0,99.0,'11111222,11111222,11144222' 
FIT,ioos:station:wmo:SIPF1:1,2017-04-25T19:30:00Z,27.8620,-80.4450,1.0,4.2,97.0,99.0,'11111222,11111222,11144222' 
FIT,ioos:station:wmo:SIPF1:1,2017-04-25T19:45:00Z,27.8620,-80.4450,1.0,4.9,99.0,99.0,'11111222,11111222,11144222' 
FIT,ioos:station:wmo:SIPF1:1,2017-04-25T20:00:00Z,27.8620,-80.4450,1.0,4.7,102.0,99.0,'11111222,11111222,11144222' 
FIT,ioos:station:wmo:SIPF1:1,2017-04-25T20:15:00Z,27.8620,-80.4450,1.0,4.6,103.0,99.0,'11111222,11111222,11144222' 
FIT,ioos:station:wmo:SIPF1:1,2017-04-25T20:30:00Z,27.8620,-80.4450,1.0,5.8,113.0,99.0,'11111222,11111222,11144222' 
FIT,ioos:station:wmo:SIPF1:1,2017-04-25T20:45:00Z,27.8620,-80.4450,1.0,5.5,115.0,99.0,'11111222,11111222,11144222' 
FIT,ioos:station:wmo:SIPF1:1,2017-04-25T21:00:00Z,27.8620,-80.4450,1.0,5.8,114.0,99.0,'11111222,11111222,11144222' 
FIT,ioos:station:wmo:SIPF1:1,2017-04-25T21:15:00Z,27.8620,-80.4450,1.0,5.9,112.0,99.0,'11111222,11111222,11144222' 
FIT,ioos:station:wmo:SIPF1:1,2017-04-25T21:30:00Z,27.8620,-80.4450,1.0,6.5,120.0,99.0,'11111222,11111222,11144222' 
FIT,ioos:station:wmo:SIPF1:1,2017-04-25T21:45:00Z,27.8620,-80.4450,1.0,6.6,119.0,99.0,'11111222,11111222,11144222' 
FIT,ioos:station:wmo:SIPF1:1,2017-04-25T22:00:00Z,27.8620,-80.4450,1.0,6.7,122.0,99.0,'11111222,11111222,11144222' 
FIT,ioos:station:wmo:SIPF1:1,2017-04-25T22:15:00Z,27.8620,-80.4450,1.0,6.8,125.0,99.0,'11111222,11111222,11144222' 
FIT,ioos:station:wmo:SIPF1:1,2017-04-25T22:30:00Z,27.8620,-80.4450,1.0,6.9,124.0,99.0,'11111222,11111222,11144222' 
FIT,ioos:station:wmo:SIPF1:1,2017-04-25T22:45:00Z,27.8620,-80.4450,1.0,6.3,122.0,99.0,'11111222,11111222,11144222' 
FIT,ioos:station:wmo:SIPF1:1,2017-04-25T23:00:00Z,27.8620,-80.4450,1.0,6.7,128.0,99.0,'11111222,11111222,11144222' 
FIT,ioos:station:wmo:SIPF1:1,2017-04-25T23:15:00Z,27.8620,-80.4450,1.0,6.4,123.0,99.0,'11111222,11111222,11144222' 
FIT,ioos:station:wmo:SIPF1:1,2017-04-25T23:30:00Z,27.8620,-80.4450,1.0,6.1,126.0,99.0,'11111222,11111222,11144222' 
FIT,ioos:station:wmo:SIPF1:1,2017-04-25T23:45:00Z,27.8620,-80.4450,1.0,6.0,126.0,99.0,'11111222,11111222,11144222' 
FIT,ioos:station:wmo:SIPF1:1,2017-04-26T00:00:00Z,27.8620,-80.4450,1.0,5.9,128.0,99.0,'11111222,11111222,11144222' 
FIT,ioos:station:wmo:SIPF1:1,2017-04-26T00:15:00Z,27.8620,-80.4450,1.0,5.9,136.0,99.0,'11111222,11111222,11144222' 
FIT,ioos:station:wmo:SIPF1:1,2017-04-26T00:30:00Z,27.8620,-80.4450,1.0,5.7,140.0,99.0,'11111222,11111222,11144222' 
FIT,ioos:station:wmo:SIPF1:1,2017-04-26T00:45:00Z,27.8620,-80.4450,1.0,6.0,131.0,99.0,'11111222,11111222,11144222' 
FIT,ioos:station:wmo:SIPF1:1,2017-04-26T01:00:00Z,27.8620,-80.4450,1.0,5.6,136.0,99.0,'11111222,11111222,11144222' 
FIT,ioos:station:wmo:SIPF1:1,2017-04-26T01:15:00Z,27.8620,-80.4450,1.0,5.3,131.0,99.0,'11111222,11111222,11144222' 
FIT,ioos:station:wmo:SIPF1:1,2017-04-26T01:30:00Z,27.8620,-80.4450,1.0,5.2,135.0,99.0,'11111222,11111222,11144222' 
FIT,ioos:station:wmo:SIPF1:1,2017-04-26T01:45:00Z,27.8620,-80.4450,1.0,4.8,134.0,99.0,'11111222,11111222,11144222' 
FIT,ioos:station:wmo:SIPF1:1,2017-04-26T02:00:00Z,27.8620,-80.4450,1.0,3.7,150.0,99.0,'11111222,11111222,11144222' 
FIT,ioos:station:wmo:SIPF1:1,2017-04-26T02:15:00Z,27.8620,-80.4450,1.0,3.5,131.0,99.0,'11111222,11111222,11144222' 
FIT,ioos:station:wmo:SIPF1:1,2017-04-26T02:30:00Z,27.8620,-80.4450,1.0,3.0,137.0,99.0,'11111222,11111222,11144222' 
FIT,ioos:station:wmo:SIPF1:1,2017-04-26T02:45:00Z,27.8620,-80.4450,1.0,1.8,167.0,99.0,'11111222,11111222,11144222' 
FIT,ioos:station:wmo:SIPF1:1,2017-04-26T03:00:00Z,27.8620,-80.4450,1.0,2.0,232.0,99.0,'11111222,11111222,11144222' 
FIT,ioos:station:wmo:SIPF1:1,2017-04-26T03:15:00Z,27.8620,-80.4450,1.0,2.9,264.0,99.0,'11111222,11111222,11144222' 
FIT,ioos:station:wmo:SIPF1:1,2017-04-26T03:30:00Z,27.8620,-80.4450,1.0,3.6,250.0,99.0,'11111222,11111222,11144222' 
FIT,ioos:station:wmo:SIPF1:1,2017-04-26T03:45:00Z,27.8620,-80.4450,1.0,5.0,248.0,99.0,'11111222,11111222,11144222' 
FIT,ioos:station:wmo:SIPF1:1,2017-04-26T04:00:00Z,27.8620,-80.4450,1.0,4.7,259.0,99.0,'11111222,11111222,11144222' 
FIT,ioos:station:wmo:SIPF1:1,2017-04-26T04:15:00Z,27.8620,-80.4450,1.0,4.8,269.0,99.0,'11111222,11111222,11144222' 
FIT,ioos:station:wmo:SIPF1:1,2017-04-26T04:30:00Z,27.8620,-80.4450,1.0,4.6,274.0,99.0,'11111222,11111222,11144222' 
FIT,ioos:station:wmo:SIPF1:1,2017-04-26T04:45:00Z,27.8620,-80.4450,1.0,4.5,269.0,99.0,'11111222,11111222,11144222' 
FIT,ioos:station:wmo:SIPF1:1,2017-04-26T05:00:00Z,27.8620,-80.4450,1.0,3.4,270.0,99.0,'11111222,11111222,11144222' 
FIT,ioos:station:wmo:SIPF1:1,2017-04-26T05:15:00Z,27.8620,-80.4450,1.0,3.9,284.0,99.0,'11111222,11111222,11144222' 
FIT,ioos:station:wmo:SIPF1:1,2017-04-26T05:30:00Z,27.8620,-80.4450,1.0,3.6,289.0,99.0,'11111222,11111222,11144222' 
FIT,ioos:station:wmo:SIPF1:1,2017-04-26T05:45:00Z,27.8620,-80.4450,1.0,3.5,290.0,99.0,'11111222,11111222,11144222' 
FIT,ioos:station:wmo:SIPF1:1,2017-04-26T06:00:00Z,27.8620,-80.4450,1.0,4.5,282.0,99.0,'11111222,11111222,11144222' 
FIT,ioos:station:wmo:SIPF1:1,2017-04-26T06:15:00Z,27.8620,-80.4450,1.0,3.9,285.0,99.0,'11111222,11111222,11144222' 
FIT,ioos:station:wmo:SIPF1:1,2017-04-26T06:30:00Z,27.8620,-80.4450,1.0,4.1,291.0,99.0,'11111222,11111222,11144222' 
FIT,ioos:station:wmo:SIPF1:1,2017-04-26T06:45:00Z,27.8620,-80.4450,1.0,4.1,296.0,99.0,'11111222,11111222,11144222' 
FIT,ioos:station:wmo:SIPF1:1,2017-04-26T07:00:00Z,27.8620,-80.4450,1.0,4.2,301.0,99.0,'11111222,11111222,11144222' 
FIT,ioos:station:wmo:SIPF1:1,2017-04-26T07:15:00Z,27.8620,-80.4450,1.0,4.0,314.0,99.0,'11111222,11111222,11144222' 
FIT,ioos:station:wmo:SIPF1:1,2017-04-26T07:30:00Z,27.8620,-80.4450,1.0,4.1,323.0,99.0,'11111222,11111222,11144222' 
FIT,ioos:station:wmo:SIPF1:1,2017-04-26T07:45:00Z,27.8620,-80.4450,1.0,3.6,311.0,99.0,'11111222,11111222,11144222' 
FIT,ioos:station:wmo:SIPF1:1,2017-04-26T08:00:00Z,27.8620,-80.4450,1.0,3.8,310.0,99.0,'11111222,11111222,11144222' 
FIT,ioos:station:wmo:SIPF1:1,2017-04-26T08:15:00Z,27.8620,-80.4450,1.0,3.1,308.0,99.0,'11111222,11111222,11144222' 
FIT,ioos:station:wmo:SIPF1:1,2017-04-26T08:30:00Z,27.8620,-80.4450,1.0,2.6,298.0,99.0,'11111222,11111222,11144222' 
FIT,ioos:station:wmo:SIPF1:1,2017-04-26T08:45:00Z,27.8620,-80.4450,1.0,2.8,302.0,99.0,'11111222,11111222,11144222' 
FIT,ioos:station:wmo:SIPF1:1,2017-04-26T09:00:00Z,27.8620,-80.4450,1.0,2.0,293.0,99.0,'11111222,11111222,11144222' 
FIT,ioos:station:wmo:SIPF1:1,2017-04-26T09:15:00Z,27.8620,-80.4450,1.0,2.1,291.0,99.0,'11111222,11111222,11144222' 
FIT,ioos:station:wmo:SIPF1:1,2017-04-26T09:30:00Z,27.8620,-80.4450,1.0,2.7,300.0,99.0,'11111222,11111222,11144222' 
FIT,ioos:station:wmo:SIPF1:1,2017-04-26T09:45:00Z,27.8620,-80.4450,1.0,2.4,302.0,99.0,'11111222,11111222,11144222' 
FIT,ioos:station:wmo:SIPF1:1,2017-04-26T10:00:00Z,27.8620,-80.4450,1.0,2.2,301.0,99.0,'11111222,11111222,11144222' 
FIT,ioos:station:wmo:SIPF1:1,2017-04-26T10:15:00Z,27.8620,-80.4450,1.0,2.1,302.0,99.0,'11111222,11111222,11144222' 
FIT,ioos:station:wmo:SIPF1:1,2017-04-26T10:30:00Z,27.8620,-80.4450,1.0,2.3,300.0,99.0,'11111222,11111222,11144222' 
FIT,ioos:station:wmo:SIPF1:1,2017-04-26T10:45:00Z,27.8620,-80.4450,1.0,2.1,288.0,99.0,'11111222,11111222,11144222' 
FIT,ioos:station:wmo:SIPF1:1,2017-04-26T11:00:00Z,27.8620,-80.4450,1.0,1.9,278.0,99.0,'11111222,11111222,11144222' 
FIT,ioos:station:wmo:SIPF1:1,2017-04-26T11:15:00Z,27.8620,-80.4450,1.0,1.7,261.0,99.0,'11111222,11111222,11144222' 
FIT,ioos:station:wmo:SIPF1:1,2017-04-26T11:30:00Z,27.8620,-80.4450,1.0,2.2,248.0,99.0,'11111222,11111222,11144222' 
FIT,ioos:station:wmo:SIPF1:1,2017-04-26T11:45:00Z,27.8620,-80.4450,1.0,2.2,208.0,99.0,'11111222,11111222,11144222' 
FIT,ioos:station:wmo:SIPF1:1,2017-04-26T12:00:00Z,27.8620,-80.4450,1.0,1.9,214.0,99.0,'11111222,11111222,11144222' 
FIT,ioos:station:wmo:SIPF1:1,2017-04-26T12:15:00Z,27.8620,-80.4450,1.0,2.2,218.0,99.0,'11111222,11111222,11144222' 
FIT,ioos:station:wmo:SIPF1:1,2017-04-26T12:30:00Z,27.8620,-80.4450,1.0,2.2,209.0,99.0,'11111222,11111222,11144222' 
FIT,ioos:station:wmo:SIPF1:1,2017-04-26T12:45:00Z,27.8620,-80.4450,1.0,1.9,208.0,99.0,'11111222,11111222,11144222' 
FIT,ioos:station:wmo:SIPF1:1,2017-04-26T13:00:00Z,27.8620,-80.4450,1.0,2.5,217.0,99.0,'11111222,11111222,11144222' 
FIT,ioos:station:wmo:SIPF1:1,2017-04-26T13:15:00Z,27.8620,-80.4450,1.0,2.7,230.0,99.0,'11111222,11111222,11144222' 
FIT,ioos:station:wmo:SIPF1:1,2017-04-26T13:30:00Z,27.8620,-80.4450,1.0,2.8,237.0,99.0,'11111222,11111222,11144222' 
FIT,ioos:station:wmo:SIPF1:1,2017-04-26T13:45:00Z,27.8620,-80.4450,1.0,2.2,230.0,99.0,'11111222,11111222,11144222' 
FIT,ioos:station:wmo:SIPF1:1,2017-04-26T14:00:00Z,27.8620,-80.4450,1.0,1.7,229.0,99.0,'11111222,11111222,11144222' 
FIT,ioos:station:wmo:SIPF1:1,2017-04-26T14:15:00Z,27.8620,-80.4450,1.0,1.1,250.0,99.0,'11111222,11111222,11144222' 
FIT,ioos:station:wmo:SIPF1:1,2017-04-26T14:30:00Z,27.8620,-80.4450,1.0,1.4,230.0,99.0,'11111222,11111222,11144222' 
FIT,ioos:station:wmo:SIPF1:1,2017-04-26T14:45:00Z,27.8620,-80.4450,1.0,1.4,140.0,99.0,'11111222,11111222,11144222' 
FIT,ioos:station:wmo:SIPF1:1,2017-04-26T15:00:00Z,27.8620,-80.4450,1.0,1.8,116.0,99.0,'11111222,11111222,11144222' 
FIT,ioos:station:wmo:SIPF1:1,2017-04-26T15:15:00Z,27.8620,-80.4450,1.0,1.2,142.0,99.0,'11111222,11111222,11144222' 
FIT,ioos:station:wmo:SIPF1:1,2017-04-26T15:30:00Z,27.8620,-80.4450,1.0,2.1,236.0,99.0,'11111222,11111222,11144222' 
FIT,ioos:station:wmo:SIPF1:1,2017-04-26T15:45:00Z,27.8620,-80.4450,1.0,5.8,240.0,99.0,'11111222,11111222,11144222' 
FIT,ioos:station:wmo:SIPF1:1,2017-04-26T16:00:00Z,27.8620,-80.4450,1.0,5.6,250.0,99.0,'11111222,11111222,11144222' 
FIT,ioos:station:wmo:SIPF1:1,2017-04-26T16:15:00Z,27.8620,-80.4450,1.0,5.6,241.0,99.0,'11111222,11111222,11144222' 
FIT,ioos:station:wmo:SIPF1:1,2017-04-26T16:30:00Z,27.8620,-80.4450,1.0,5.3,244.0,99.0,'11111222,11111222,11144222' 
FIT,ioos:station:wmo:SIPF1:1,2017-04-26T16:45:00Z,27.8620,-80.4450,1.0,5.3,233.0,99.0,'11111222,11111222,11144222' 
FIT,ioos:station:wmo:SIPF1:1,2017-04-26T17:00:00Z,27.8620,-80.4450,1.0,4.3,228.0,99.0,'11111222,11111222,11144222' 
FIT,ioos:station:wmo:SIPF1:1,2017-04-26T17:15:00Z,27.8620,-80.4450,1.0,4.4,164.0,99.0,'11111222,11111222,11144222' 
FIT,ioos:station:wmo:SIPF1:1,2017-04-26T17:30:00Z,27.8620,-80.4450,1.0,5.6,109.0,99.0,'11111222,11111222,11144222' 
FIT,ioos:station:wmo:SIPF1:1,2017-04-26T17:45:00Z,27.8620,-80.4450,1.0,5.9,113.0,99.0,'11111222,11111222,11144222' 
FIT,ioos:station:wmo:SIPF1:1,2017-04-26T18:00:00Z,27.8620,-80.4450,1.0,5.5,106.0,99.0,'11111222,11111222,11144222' 
FIT,ioos:station:wmo:SIPF1:1,2017-04-26T18:15:00Z,27.8620,-80.4450,1.0,5.4,109.0,99.0,'11111222,11111222,11144222' 
FIT,ioos:station:wmo:SIPF1:1,2017-04-26T18:30:00Z,27.8620,-80.4450,1.0,5.6,115.0,99.0,'11111222,11111222,11144222' 
FIT,ioos:station:wmo:SIPF1:1,2017-04-26T18:45:00Z,27.8620,-80.4450,1.0,5.9,117.0,99.0,'11111222,11111222,11144222' 
FIT,ioos:station:wmo:SIPF1:1,2017-04-26T19:00:00Z,27.8620,-80.4450,1.0,6.4,123.0,99.0,'11111222,11111222,11144222' 
FIT,ioos:station:wmo:SIPF1:1,2017-04-26T19:15:00Z,27.8620,-80.4450,1.0,6.6,117.0,99.0,'11111222,11111222,11144222' 
FIT,ioos:station:wmo:SIPF1:1,2017-04-26T19:30:00Z,27.8620,-80.4450,1.0,7.3,128.0,99.0,'11111222,11111222,11144222' 